Location: Zagreb
(45.8000°N, 16.0000°E)
Time: 14:23:42
(UTC+02:00)

Transit 2A - Pass Details

Date: 12 August 2022
Orbit: 601 x 956 km, 66.7° (Epoch: 25 September)

Event Time Altitude Azimuth Distance (km) Brightness Sun altitude
Rises 20:29:00 0° 330° (NNW) 2,860 10.0 -4.0°
Reaches altitude 10° 20:31:17 10° 335° (NNW) 1,956 9.0 -4.3°
Maximum altitude 20:35:33 55° 53° (NE) 744 5.9 -5.0°
Drops below altitude 10° 20:40:00 10° 132° (SE) 2,030 7.6 -5.7°
Enters shadow 20:40:53 - 134° (SE) 2,377 7.9 -5.8°
Sets 20:42:24 0° 137° (SE) 2,980 - -6.0°
